Regional Weather Roundup
Issued by NWS Little Rock, AR

Home | Current Version | Previous Version | Graphics & Text | Print | Product List | Glossary On
Versions: 1 2 3 4 5 6 7 8 9 10 11 12 13 14 15 16 17 18 19 20 21 22 23 24 25 26 27 28 29 30 31 32
000
ASUS44 KLZK 010305
RWRLZK

WEATHER ROUNDUP FOR ARKANSAS
NATIONAL WEATHER SERVICE LITTLE ROCK AR
1000 PM CDT FRI SEP 30 2016

NOTE: "FAIR" INDICATES FEW OR NO CLOUDS BELOW 12,000 FEET WITH NO
SIGNIFICANT WEATHER AND/OR OBSTRUCTIONS TO VISIBILITY.

ARZ001-003-010-029-010400-
NORTHWEST ARKANSAS

CITY           SKY/WX    TMP DP  RH WIND       PRES   REMARKS
FAYETTEVILLE   CLEAR     54  54 100 CALM      30.12S
FORT SMITH     PTCLDY    66  51  58 NE3       30.08S
HARRISON       CLEAR     58  53  84 W6        30.11F
BENTONVILLE    PTCLDY    57  50  77 CALM      30.12S
ROGERS         CLOUDY    58  54  86 CALM      30.12S
SILOAM SPGS    CLEAR     57  46  67 CALM      30.12F
HIGHFILL       PTCLDY    58  53  84 N3        30.11S
$$

ARZ004-005-016-010400-
NORTH CENTRAL ARKANSAS

CITY           SKY/WX    TMP DP  RH WIND       PRES   REMARKS
BATESVILLE     CLEAR     61  55  82 CALM      30.09S
FLIPPIN        CLEAR     63  55  77 CALM      30.07S
MTN HOME       MOCLDY    62  56  80 CALM      30.09S
$$

ARZ040-041-010400-
WEST CENTRAL ARKANSAS

CITY           SKY/WX    TMP DP  RH WIND       PRES   REMARKS
MENA           CLOUDY    57  55  94 CALM      30.10S
MOUNT IDA      CLEAR     59  56  89 CALM      30.07R
$$

ARZ009-017-025-026-028-010400-
NORTHEAST ARKANSAS

CITY           SKY/WX    TMP DP  RH WIND       PRES   REMARKS
CORNING          N/A     64  59  82 NW6       30.07S
JONESBORO      PTCLDY    65  56  72 NW3       30.06S
NEWPORT        CLOUDY    65  58  78 MISG        N/A
WALNUT RIDGE   CLOUDY    66  55  68 W3        30.06F
BLYTHEVILLE    CLEAR     62  57  83 CALM      30.06S
$$

ARZ022-023-033-042-044-010400-
CENTRAL ARKANSAS

CITY           SKY/WX    TMP DP  RH WIND       PRES   REMARKS
LITTLE ROCK    PTCLDY    64  60  87 CALM      30.07S
N LITTLE ROCK    N/A     66  56  69 CALM      30.06S
JACKSONVILLE   CLEAR     62  57  85 CALM      30.07S
SEARCY         CLOUDY    67  58  72 N3        30.09S
HOT SPRINGS    CLEAR     63  53  70 CALM      30.08R
RUSSELLVILLE   CLEAR     61  56  83 CALM      30.08R
$$

ARZ036-010400-
EAST ARKANSAS

CITY           SKY/WX    TMP DP  RH WIND       PRES   REMARKS
WEST MEMPHIS   CLEAR     60  54  80 NW3       30.06R
$$

ARZ050-053-066-070-073-010400-
SOUTHWEST ARKANSAS

CITY           SKY/WX    TMP DP  RH WIND       PRES   REMARKS
ARKADELPHIA    FAIR      58  57  97 CALM      30.07F
TEXARKANA      CLEAR     66  52  60 CALM      30.07F
EL DORADO      CLEAR     59  57  93 CALM      30.08R
DE QUEEN       CLEAR     57  57 100 CALM      30.06S
$$

ARZ056-057-069-010400-
SOUTHEAST ARKANSAS

CITY           SKY/WX    TMP DP  RH WIND       PRES   REMARKS
PINE BLUFF     CLEAR     62  56  80 CALM      30.07R
STUTTGART      CLEAR     63  52  67 N6        30.08S
MONTICELLO     CLEAR     61  57  87 CALM      30.07R

$$






USA.gov is the U.S. government's official web portal to all federal, state and local government web resources and services.